Coffman Cove, AK

7:54 AM AKDT on July 28, 2016 (GMT -0800)
Ketchikan International

Weather History for PAKT - September, 2013

Change the Weather History Date:

Wednesday, September 4, 2013

  Actual Average Record
Temperature  
Mean Temperature 59 °F -  
Max Temperature 61 °F 61 °F 80 °F (1949)
Min Temperature 57 °F 49 °F 33 °F (1996)
Degree Days  
Heating Degree Days 6    
Growing Degree Days 9 (Base 50)    
Moisture  
Dew Point 58 °F    
Average Humidity 98    
Maximum Humidity 100    
Minimum Humidity 83    
Precipitation  
Precipitation 0.07 in - - ()
Sea Level Pressure  
Sea Level Pressure 30.07 in    
Wind  
Wind Speed 6 mph (SSE)    
Max Wind Speed 12 mph    
Max Gust Speed -    
Visibility 8 miles    
Events Rain    
Averages and records for this station are not official NWS values.
T = Trace of Precipitation, MM = Missing Value Source: NWS Daily Summary

Daily Weather History Graph

Daily Weather History Graph

Search for Another Location

Airport or City:

Trip Planner

Search our weather history database for the weather conditions in past years. The results will help you decide how hot, cold, wet, or windy it might be!

Date:

Astronomy

Sep. 04, 2013 Rise Set
Actual Time 5:58 AM AKDT 7:31 PM AKDT
Civil Twilight 5:20 AM AKDT 8:09 PM AKDT
Nautical Twilight 4:33 AM AKDT 8:56 PM AKDT
Astronomical Twilight 3:39 AM AKDT 9:49 PM AKDT
Moon 5:19 AM AKDT (9/4) 6:47 PM AKDT (9/4)
Length of Visible Light 14h 48m
Length of Day
13h 32m
Waning Crescent, 0% of the Moon is Illuminated
Sep 4
Waning Crescent
Sep 5
New
Sep 12
First Quarter
Sep 19
Full
Sep 26
Last Quarter

Hourly Weather History & Observations

Time (AKDT) Temp. Dew Point Humidity Pressure Visibility Wind Dir Wind Speed Gust Speed Precip Events Conditions
12:53 AM 57.0 °F 57.0 °F 100% 30.00 in 10.0 mi SSE 5.8 mph - N/A   Partly Cloudy
1:05 AM 57.2 °F 57.2 °F 100% 30.00 in 10.0 mi SE 4.6 mph - N/A   Mostly Cloudy
1:19 AM 57.2 °F 57.2 °F 100% 30.00 in 5.0 mi SSE 4.6 mph - N/A   Overcast
1:53 AM 59.0 °F 59.0 °F 100% 30.01 in 5.0 mi SE 6.9 mph - N/A   Overcast
2:53 AM 59.0 °F 59.0 °F 100% 30.00 in 10.0 mi SE 3.5 mph - N/A   Overcast
3:03 AM 59.0 °F 59.0 °F 100% 30.00 in 10.0 mi SSE 3.5 mph - N/A   Overcast
3:53 AM - - N/A% 30.01 in 10.0 mi SE 5.8 mph - N/A   Overcast
4:51 AM 57.2 °F 57.2 °F 100% 30.01 in 10.0 mi South 4.6 mph - N/A   Mostly Cloudy
4:53 AM 57.0 °F 57.0 °F 100% 30.01 in 10.0 mi South 4.6 mph - N/A   Mostly Cloudy
5:08 AM 57.2 °F 57.2 °F 100% 30.02 in 10.0 mi SSE 4.6 mph - N/A   Overcast
5:33 AM 57.2 °F 57.2 °F 100% 30.02 in 10.0 mi South 5.8 mph - N/A   Overcast
5:41 AM 57.2 °F 57.2 °F 100% 30.02 in 10.0 mi South 4.6 mph - N/A   Overcast
5:53 AM 57.9 °F 57.0 °F 97% 30.03 in 10.0 mi South 4.6 mph - N/A   Overcast
6:53 AM 57.9 °F 57.9 °F 100% 30.05 in 10.0 mi SSE 6.9 mph - N/A   Overcast
7:53 AM 59.0 °F 55.9 °F 90% 30.06 in 10.0 mi SE 9.2 mph - N/A   Overcast
8:53 AM 60.1 °F 57.0 °F 90% 30.06 in 10.0 mi SE 11.5 mph - N/A   Overcast
9:53 AM 60.1 °F 57.0 °F 90% 30.08 in 10.0 mi SE 9.2 mph - N/A   Overcast
10:53 AM 60.1 °F 57.0 °F 90% 30.09 in 10.0 mi SE 9.2 mph - N/A   Overcast
11:53 AM 61.0 °F 55.9 °F 83% 30.10 in 10.0 mi SE 8.1 mph - N/A   Overcast
12:53 PM 61.0 °F 55.9 °F 83% 30.10 in 10.0 mi SE 10.4 mph - N/A   Overcast
1:53 PM 59.0 °F 57.9 °F 96% 30.11 in 5.0 mi SSE 6.9 mph - N/A   Overcast
2:53 PM 57.9 °F 57.9 °F 100% 30.12 in 3.0 mi SSE 5.8 mph - 0.01 in Rain Light Rain
3:02 PM 57.2 °F 57.2 °F 100% 30.11 in 3.0 mi SSE 8.1 mph - 0.00 in Rain Light Rain
3:39 PM 57.2 °F 57.2 °F 100% 30.11 in 2.0 mi ESE 9.2 mph - 0.02 in Rain Light Rain
3:53 PM 57.9 °F 57.9 °F 100% 30.11 in 3.0 mi SE 9.2 mph - 0.02 in Rain Light Rain
4:53 PM 57.9 °F 57.9 °F 100% 30.10 in 3.0 mi SE 9.2 mph - 0.03 in Rain Light Rain
5:53 PM 59.0 °F 59.0 °F 100% 30.10 in 10.0 mi SE 9.2 mph - 0.00 in   Overcast
6:53 PM 59.0 °F 59.0 °F 100% 30.11 in 10.0 mi SE 8.1 mph - 0.01 in Rain Light Rain
7:53 PM 59.0 °F 59.0 °F 100% 30.12 in 10.0 mi SE 4.6 mph - 0.00 in   Overcast
8:53 PM 57.9 °F 57.9 °F 100% 30.12 in 10.0 mi SE 5.8 mph - N/A   Overcast
9:00 PM 57.2 °F 57.2 °F 100% 30.12 in 10.0 mi SE 5.8 mph - N/A   Overcast
9:53 PM 57.9 °F 57.9 °F 100% 30.13 in 10.0 mi South 4.6 mph - N/A   Overcast
10:53 PM 57.9 °F 57.9 °F 100% 30.13 in 10.0 mi SSE 4.6 mph - 0.00 in   Overcast
11:25 PM 57.2 °F 57.2 °F 100% 30.13 in 7.0 mi SSE 8.1 mph - 0.00 in   Overcast
11:53 PM 57.9 °F 57.9 °F 100% 30.14 in 5.0 mi SSE 5.8 mph - 0.00 in   Overcast